Regional Weather Roundup
Issued by NWS Northern Indiana

Home | Current Version | Previous Version | Graphics & Text | Print | Product List | Glossary On
Versions: 1 2 3 4 5 6 7 8 9 10 11 12 13 14 15 16 17 18 19 20 21 22 23 24 25 26 27 28 29 30 31 32 33 34 35 36 37 38 39 40 41 42 43 44 45 46 47 48 49 50
040
ASUS43 KIWX 110010
RWRIWX

KIWX WEATHER ROUNDUP
NATIONAL WEATHER SERVICE NORTHERN INDIANA
700 PM EST WED FEB 10 2016

NOTE: "FAIR" INDICATES FEW OR NO CLOUDS BELOW 12,000 FEET WITH NO
SIGNIFICANT WEATHER AND/OR OBSTRUCTIONS TO VISIBILITY.

* THESE STATIONS ARE NOT UNDER NWS QUALITY CONTROL. THEY ALSO MAY NOT
  REPORT WEATHER SUCH AS PRECIPITATION OR FOG.

INZ001>027-110100-
NORTHERN INDIANA

CITY           SKY/WX    TMP DP  RH WIND       PRES   REMARKS
GARY*          MOCLDY    18   1  49 W12       30.09R WCI   5
VALPARAISO     LGT SNOW  16   7  67 NW8       30.07R WCI   5
6HR MIN TEMP:  15; 6HR MAX TEMP:  18; 6HR PCP: TRACE;

MICHIGAN CITY* FLURRIES  18   9  68 NW7       30.07R WCI   8
LAPORTE*       CLOUDY    17   8  69 NW7       30.07R WCI   8
6HR MIN TEMP:  17; 6HR MAX TEMP:  19;

KNOX*          CLOUDY    14   9  79 NW5       30.08R WCI   6
SOUTH BEND     LGT SNOW  13  10  88 W8        30.06R VSB 1   WCI   2
6HR MIN TEMP:  13; 6HR MAX TEMP:  17; 6HR PCP:  0.02;

ELKHART*       LGT SNOW  16  10  79 W14       30.04R WCI   1
GOSHEN         CLOUDY    15   6  67 W18       30.03R WCI  -2
6HR MIN TEMP:  14; 6HR MAX TEMP:  18; 6HR PCP:  0.01;

MONTICELLO*    CLOUDY    17   3  55 W8        30.08R WCI   6
6HR MIN TEMP:  15; 6HR MAX TEMP:  17;

LOGANSPORT*    CLOUDY    18   3  53 W9        30.08S WCI   6
ROCHESTER*     CLOUDY    18   1  49 W8        30.07R WCI   7
WARSAW*        CLOUDY    16   7  67 W13       30.04R WCI   2
ANGOLA*        CLOUDY    16  12  86 W9        29.95R WCI   4
FORT WAYNE     FLURRIES  18   8  65 W17G28    30.03R WCI   3
6HR MIN TEMP:  18; 6HR MAX TEMP:  24; 6HR PCP: TRACE;

HUNTINGTON*    CLOUDY    15   3  59 W14G24    30.05R WCI   0
6HR MIN TEMP:  15; 6HR MAX TEMP:  19;

PERU/GRISSOM   CLOUDY    15   6  66 W12       30.05R WCI   2
6HR MIN TEMP:  15; 6HR MAX TEMP:  17;

MARION*        CLOUDY    14  -1  51 W15       30.08R WCI  -1
6HR MIN TEMP:  -1; 6HR MAX TEMP:  59;


$$
INZ028>050-110100-
CENTRAL INDIANA

CITY           SKY/WX    TMP DP  RH WIND       PRES   REMARKS
LAFAYETTE      PTCLDY    15   5  64 W6        30.10R WCI   6
6HR MIN TEMP:  14; 6HR MAX TEMP:  16; 6HR PCP: TRACE;

KOKOMO*        CLOUDY    16   3  57 NW13      30.07R WCI   2
6HR MIN TEMP:  16; 6HR MAX TEMP:  18;

MUNCIE*        CLOUDY    15   5  64 W12       30.06R WCI   2
6HR MIN TEMP:  15; 6HR MAX TEMP:  18; 6HR PCP: TRACE;

INDIANAPOLIS   CLOUDY    16   5  62 W10       30.09R WCI   4
6HR MIN TEMP:  14; 6HR MAX TEMP:  18;


$$
MIZ043>046-050>051-056>058-064>065-071>073-077>080-110100-
SOUTHWEST LOWER MICHIGAN

CITY           SKY/WX    TMP DP  RH WIND       PRES   REMARKS
BATTLE CREEK   CLOUDY    16   4  59 N15       29.97R WCI   1
6HR MIN TEMP:  16; 6HR MAX TEMP:  21; 6HR PCP: TRACE;

BENTON HARBOR  FLURRIES  18   8  65 NW8       30.05R WCI   8
6HR MIN TEMP:  17; 6HR MAX TEMP:  21; 6HR PCP: TRACE;

COLDWATER*     FLURRIES  17  11  79 NW9       29.97R WCI   5
6HR MIN TEMP:  17; 6HR MAX TEMP:  21;

HILLSDALE*     CLOUDY    17   9  71 W9        29.93R WCI   5
6HR MIN TEMP:  17; 6HR MAX TEMP:  22;

HOLLAND        LGT SNOW  16  10  77 NW6       30.03R WCI   7
6HR MIN TEMP:  15; 6HR MAX TEMP:  20; 6HR PCP:  0.02;

GRAND RAPIDS   PTCLDY    15   6  67 NW14      30.00R WCI   0
6HR MIN TEMP:  15; 6HR MAX TEMP:  22; 6HR PCP: TRACE;

KALAMAZOO      CLOUDY    16   6  65 NW16      30.00R WCI   1
6HR MIN TEMP:  15; 6HR MAX TEMP:  21; 6HR PCP: TRACE;

STURGIS*       FLURRIES  16  12  84 W13       29.99R WCI   2
6HR MIN TEMP:  16; 6HR MAX TEMP:  21;

THREE RIVERS*  FLURRIES  17  12  80 W10       30.01R WCI   5
6HR MIN TEMP:  17; 6HR MAX TEMP:  21;


$$
OHZ001>008-015>018-024>025-110100-
NORTHWEST OHIO

CITY           SKY/WX    TMP DP  RH WIND       PRES   REMARKS
DEFIANCE       LGT SNOW  19  11  70 W13G18    30.01R WCI   6
6HR MIN TEMP:  19; 6HR MAX TEMP:  24; 6HR PCP: TRACE;

FINDLAY        CLOUDY    18  12  77 W23G29    29.96R WCI   0
6HR MIN TEMP:  18; 6HR MAX TEMP:  24; 6HR PCP: TRACE;

TOLEDO EXPRESS CLOUDY    20   9  62 W17       29.95R WCI   5
6HR MIN TEMP:  19; 6HR MAX TEMP:  23; 6HR PCP: TRACE;

TOLEDO METCALF CLOUDY    21   8  57 W17       29.95R WCI   7
6HR MIN TEMP:  21; 6HR MAX TEMP:  24; 6HR PCP: TRACE;

LIMA           FLURRIES  15   8  73 W21G28    29.99R WCI  -2
6HR MIN TEMP:  15; 6HR MAX TEMP:  19; 6HR PCP: TRACE;


$$
AND FOR LAKE MICHIGAN COASTAL AND OPEN LAKE BUOY OBSERVATIONS

STATION/POSITION TEMP    WIND        PRES    VSBY  WAVE
                 AIR SEA DIR/SP/G                  HT/PER
                 (F)     (DEG/KT/KT) (MB)    (MI)  (FT/S)
CALUMET HARBOR    17                 1017.4
MICHIGAN CITY     16     300/ 11/ 16   N/A
BURNS HARBOR      18     330/  9/ 15 1019.3R
SAINT JOSEPH      19     290/ 12/ 17 1018.6R

$$
&&




USA.gov is the U.S. government's official web portal to all federal, state and local government web resources and services.